Date String (YYYY-MM-DD hh:mm:ss) UTC,Instrument flags,absolute air pressure of the measurement (hPa),sample flow rate (lpm),inlet stack bypass flow (lpm),air temperature of the measurement (°C),ambient temperature measured by the external sensor (°C),aerosol sample conditioner tube jacket temperature (°C),OPC LED temperature (°C),internal box temperature (°C),relative humidity of the measurement (%),span deviation,mass concentration of particles derived from Lorenz-Mie calculation of OPC scattering (μg/m³),mass concentration of particles derived from Lorenz-Mie calculation of OPC scattering (μg/m³),mass concentration of particles derived from Lorenz-Mie calculation of OPC scattering (μg/m³)
DateTimeUTC,F1_M11,P_M11,Q1_M11,Q2_M11,T1_M11,T2_M11,T3_M11,T4_M11,T5_M11,U1_M11,ZSPAN_M11,X0_M11,X2_M11,X1_M11
2024-02-19 10:00:00,SystemResetWarning,0824.0,4.99,000.00,018.4,017.9,000.0,026.7,020.0,12.9,0000.0,0000.68,0000.29,0000.21
2024-02-19 10:01:00,SystemResetWarning,0823.9,4.99,000.00,018.4,017.9,000.0,026.7,020.0,13.0,0000.0,0000.60,0000.29,0000.20
2024-02-19 10:02:00,SystemResetWarning,0824.0,5.00,000.00,018.4,017.9,000.0,026.7,020.0,13.1,0000.0,0000.52,0000.27,0000.20
2024-02-19 10:03:00,SystemResetWarning,0824.0,5.01,000.00,018.4,017.9,000.0,026.7,020.0,13.1,0000.0,0000.52,0000.27,0000.19
2024-02-19 10:04:00,SystemResetWarning,0824.0,5.01,000.00,018.4,017.9,000.0,026.7,020.1,12.9,0000.0,0000.52,0000.28,0000.20
2024-02-19 10:05:00,SystemResetWarning,0824.0,5.00,000.00,018.4,017.9,000.0,026.7,020.1,13.0,0000.0,0000.52,0000.28,0000.20
2024-02-19 10:06:00,SystemResetWarning,0824.0,5.00,000.00,018.4,017.9,000.0,026.7,020.1,13.2,0000.0,0000.47,0000.26,0000.19
2024-02-19 10:07:00,SystemResetWarning,0824.1,4.99,000.00,018.4,017.9,000.0,026.7,020.0,13.2,0000.0,0000.49,0000.26,0000.19
2024-02-19 10:08:00,SystemResetWarning,0824.0,5.00,000.00,018.4,017.9,000.0,026.7,020.0,13.3,0000.0,0000.65,0000.25,0000.19
2024-02-19 10:09:00,SystemResetWarning,0824.0,5.00,000.00,018.4,017.9,000.0,026.7,020.0,13.0,0000.0,0000.67,0000.24,0000.18
2024-02-19 10:10:00,SystemResetWarning,0824.0,5.01,000.00,018.4,017.9,000.0,026.7,020.0,12.7,0000.0,0000.67,0000.24,0000.18
2024-02-19 10:11:00,SystemResetWarning,0824.0,5.00,000.00,018.4,017.9,000.0,026.7,020.1,13.1,0000.0,0000.66,0000.24,0000.18
2024-02-19 10:12:00,SystemResetWarning,0824.0,5.00,000.00,018.4,017.9,000.0,026.7,020.1,13.0,0000.0,0000.66,0000.24,0000.19
2024-02-19 10:13:00,SystemResetWarning,0824.1,4.99,000.00,018.4,017.9,000.0,026.7,020.0,13.2,0000.0,0001.12,0000.24,0000.19
2024-02-19 10:14:00,SystemResetWarning,0824.1,5.00,000.00,018.4,017.9,000.0,026.7,020.0,13.5,0000.0,0001.69,0000.25,0000.19
2024-02-19 10:15:00,SystemResetWarning,0824.1,5.00,000.00,018.4,017.9,000.0,026.7,020.0,13.4,0000.0,0001.71,0000.26,0000.18
2024-02-19 10:16:00,SystemResetWarning,0824.1,5.01,000.00,018.4,017.9,000.0,026.7,020.0,13.5,0000.0,0001.73,0000.27,0000.19
2024-02-19 10:17:00,SystemResetWarning,0824.2,5.01,000.00,018.4,017.8,000.0,026.7,020.0,13.8,0000.0,0001.73,0000.27,0000.19
2024-02-19 10:18:00,SystemResetWarning,0824.2,5.00,000.00,018.3,017.8,000.0,026.7,020.0,13.7,0000.0,0001.66,0000.26,0000.19
2024-02-19 10:19:00,SystemResetWarning,0824.1,5.00,000.00,018.3,017.8,000.0,026.7,020.0,13.8,0000.0,0001.45,0000.25,0000.19
2024-02-19 10:20:00,SystemResetWarning,0824.2,5.00,000.00,018.3,017.8,000.0,026.8,020.0,13.8,0000.0,0001.40,0000.25,0000.19
2024-02-19 10:21:00,SystemResetWarning,0824.1,5.00,000.00,018.3,017.8,000.0,026.8,020.0,13.5,0000.0,0001.38,0000.25,0000.20
2024-02-19 10:22:00,SystemResetWarning,0824.1,5.00,000.00,018.3,017.8,000.0,026.7,020.0,13.6,0000.0,0001.40,0000.26,0000.20
2024-02-19 10:23:00,SystemResetWarning,0824.2,5.00,000.00,018.3,017.8,000.0,026.7,020.0,13.6,0000.0,0001.43,0000.27,0000.20
2024-02-19 10:24:00,SystemResetWarning,0824.2,5.00,000.00,018.3,017.8,000.0,026.8,020.0,13.5,0000.0,0000.96,0000.26,0000.20
2024-02-19 10:25:00,SystemResetWarning,0824.3,5.00,000.00,018.3,017.8,000.0,026.7,020.0,13.4,0000.0,0000.38,0000.25,0000.20
2024-02-19 10:26:00,SystemResetWarning,0824.2,5.00,000.00,018.3,017.8,000.0,026.7,020.0,13.0,0000.0,0000.36,0000.25,0000.21
2024-02-19 10:27:00,SystemResetWarning,0824.0,5.00,000.00,018.3,017.8,000.0,026.7,020.0,13.2,0000.0,0000.33,0000.24,0000.20
2024-02-19 10:28:00,SystemResetWarning,0824.0,5.00,000.00,018.3,017.8,000.0,026.7,020.0,13.6,0000.0,0000.33,0000.23,0000.20
2024-02-19 10:29:00,SystemResetWarning,0824.1,4.99,000.00,018.3,017.8,000.0,026.8,020.0,13.4,0000.0,0000.33,0000.24,0000.20
2024-02-19 10:30:00,SystemResetWarning,0824.1,5.00,000.00,018.3,017.8,000.0,026.7,020.0,13.5,0000.0,0000.60,0000.24,0000.21
2024-02-19 10:31:00,SystemResetWarning,0824.2,5.00,000.00,018.3,017.8,000.0,026.7,020.0,13.5,0000.0,0000.68,0000.25,0000.22
2024-02-19 10:32:00,SystemResetWarning,0824.1,5.00,000.00,018.3,017.8,000.0,026.8,020.0,13.5,0000.0,0000.68,0000.25,0000.21
2024-02-19 10:33:00,SystemResetWarning,0824.0,5.01,000.00,018.3,017.7,000.0,026.8,020.0,13.3,0000.0,0000.66,0000.24,0000.21
2024-02-19 10:34:00,SystemResetWarning,0824.1,5.00,000.00,018.3,017.7,000.0,026.8,020.0,13.0,0000.0,0000.65,0000.23,0000.21
2024-02-19 10:35:00,SystemResetWarning,0824.1,5.00,000.00,018.3,017.7,000.0,026.8,020.0,13.4,0000.0,0000.73,0000.25,0000.21
2024-02-19 10:36:00,SystemResetWarning,0824.2,5.00,000.00,018.3,017.7,000.0,026.8,020.0,13.5,0000.0,0000.77,0000.26,0000.21
2024-02-19 10:37:00,SystemResetWarning,0824.2,5.00,000.00,018.3,017.7,000.0,026.8,020.0,13.5,0000.0,0000.77,0000.26,0000.21
2024-02-19 10:38:00,SystemResetWarning,0824.3,5.00,000.00,018.3,017.7,000.0,026.8,020.0,13.6,0000.0,0000.81,0000.28,0000.22
2024-02-19 10:39:00,SystemResetWarning,0824.3,5.00,000.00,018.3,017.7,000.0,026.8,020.0,13.7,0000.0,0000.87,0000.31,0000.23
2024-02-19 10:40:00,SystemResetWarning,0824.3,5.00,000.00,018.3,017.7,000.0,026.8,020.0,13.5,0000.0,0000.90,0000.33,0000.23
2024-02-19 10:41:00,SystemResetWarning,0824.3,5.00,000.00,018.3,017.7,000.0,026.8,020.0,13.4,0000.0,0000.67,0000.33,0000.23
2024-02-19 10:42:00,SystemResetWarning,0824.3,5.00,000.00,018.4,017.7,000.0,026.8,020.0,13.1,0000.0,0000.57,0000.33,0000.23
2024-02-19 10:43:00,SystemResetWarning,0824.3,5.01,000.00,018.3,017.7,000.0,026.8,020.0,12.8,0000.0,0000.64,0000.36,0000.24
2024-02-19 10:44:00,SystemResetWarning,0824.3,5.00,000.00,018.3,017.7,000.0,026.8,020.0,12.9,0000.0,0000.68,0000.38,0000.24
2024-02-19 10:45:00,SystemResetWarning,0824.3,4.99,000.00,018.4,017.7,000.0,026.8,020.0,12.8,0000.0,0001.76,0000.39,0000.25
2024-02-19 10:46:00,SystemResetWarning,0824.4,4.99,000.00,018.4,017.7,000.0,026.8,020.0,13.1,0000.0,0002.23,0000.37,0000.25
2024-02-19 10:47:00,SystemResetWarning,0824.4,5.01,000.00,018.3,017.7,000.0,026.8,020.0,12.9,0000.0,0002.23,0000.37,0000.25
2024-02-19 10:48:00,SystemResetWarning,0824.4,5.00,000.00,018.3,017.7,000.0,026.8,020.0,13.1,0000.0,0002.34,0000.39,0000.26
2024-02-19 10:49:00,SystemResetWarning,0824.3,5.00,000.00,018.4,017.7,000.0,026.8,020.0,12.8,0000.0,0002.32,0000.38,0000.25
2024-02-19 10:50:00,SystemResetWarning,0824.3,5.00,000.00,018.4,017.7,000.0,026.8,020.0,12.7,0000.0,0002.29,0000.36,0000.24
2024-02-19 10:51:00,SystemResetWarning,0824.2,5.00,000.00,018.4,017.7,000.0,026.8,020.0,12.6,0000.0,0002.26,0000.35,0000.24
2024-02-19 10:52:00,SystemResetWarning,0824.3,5.00,000.00,018.3,017.7,000.0,026.8,020.0,12.7,0000.0,0002.26,0000.35,0000.24
2024-02-19 10:53:00,SystemResetWarning,0824.4,5.00,000.00,018.3,017.7,000.0,026.8,020.0,12.6,0000.0,0002.26,0000.34,0000.24
2024-02-19 10:54:00,SystemResetWarning,0824.4,5.00,000.00,018.3,017.6,000.0,026.8,020.0,13.0,0000.0,0002.19,0000.32,0000.24
2024-02-19 10:55:00,SystemResetWarning,0824.4,5.00,000.00,018.3,017.6,000.0,026.8,020.0,13.1,0000.0,0002.16,0000.30,0000.23
2024-02-19 10:56:00,SystemResetWarning,0824.5,4.99,000.00,018.4,017.6,000.0,026.8,020.0,13.1,0000.0,0000.91,0000.28,0000.22
2024-02-19 10:57:00,SystemResetWarning,0824.4,5.00,000.00,018.4,017.6,000.0,026.8,020.0,13.0,0000.0,0000.51,0000.29,0000.22
2024-02-19 10:58:00,SystemResetWarning,0824.5,5.00,000.00,018.4,017.6,000.0,026.8,020.0,12.7,0000.0,0000.46,0000.28,0000.22
2024-02-19 10:59:00,SystemResetWarning,0824.5,5.00,000.00,018.4,017.6,000.0,026.8,020.0,12.7,0000.0,0000.37,0000.26,0000.22
